This demonstration page uses our WeatherBlox Daily Observations layout. Learn more.

Left ArrowRight Arrow

39.08367, -84.50855

Hourly Observations for June 17, 2020

Temp ( °F °C ) Dew Point ( °F °C ) Humidity (%) Winds ( mph kmh ) Pressure ( in mb ) Visibility ( mi km ) Precip ( " mm )
12:53 am 00:53 Clear 61 16.1 57 13.9 87 87 Calm 30.2 1023 10 16.0934 0 0
1:53 am 01:53 Clear 58 14.4 55 12.8 90 90 Calm 30.2 1023 10 16.0934 0 0
2:53 am 02:53 Mostly Cloudy 58 14.4 56 13.3 93 93 Calm 30.19 1022 10 16.0934 0 0
3:53 am 03:53 Clear 59 15 57 13.9 93 93 ENE 3 6 30.18 1022 10 16.0934 0 0
4:53 am 04:53 Mostly Cloudy 58 14.4 56 13.3 93 93 Calm 30.18 1022 10 16.0934 0 0
5:53 am 05:53 Cloudy 58 14.4 56 13.3 93 93 Calm 30.18 1022 10 16.0934 0 0
6:53 am 06:53 Mostly Cloudy 59 15 57 13.9 93 93 Calm 30.19 1023 10 16.0934 0 0
7:53 am 07:53 Sunny 63 17.2 59 15 87 87 Calm 30.19 1023 10 16.0934 0 0
8:53 am 08:53 Sunny 69 20.6 60 15.6 73 73 NE 3 6 30.2 1023 10 16.0934 0 0
9:53 am 09:53 Sunny 73 22.8 58 14.4 59 59 Calm 30.19 1022 10 16.0934 0 0
10:53 am 10:53 Sunny 77 25 56 13.3 48 48 ENE 8 13 30.18 1022 10 16.0934 0 0
11:53 am 11:53 Sunny 79 26.1 56 13.3 45 45 NE 10 17 30.18 1022 10 16.0934 0 0
12:53 pm 12:53 Sunny 79 26.1 56 13.3 45 45 ENE 10 17 30.17 1022 10 16.0934 0 0
1:53 pm 13:53 Sunny 79 26.1 55 12.8 44 44 NNE 10 17 30.15 1021 10 16.0934 0 0
2:53 pm 14:53 Mostly Sunny 80 26.7 54 12.2 41 41 NE 15 24 30.13 1020 10 16.0934 0 0
3:53 pm 15:53 Mostly Sunny 82 27.8 55 12.8 40 40 NE 12 19 30.11 1020 10 16.0934 0 0
4:53 pm 16:53 Sunny 81 27.2 54 12.2 39 39 NE 10 17 30.09 1019 10 16.0934 0 0
5:53 pm 17:53 Sunny 82 27.8 53 11.7 37 37 NE 12 19 30.07 1018 10 16.0934 0 0
6:53 pm 18:53 Sunny 80 26.7 55 12.8 42 42 E 10 17 30.06 1018 10 16.0934 0 0
7:53 pm 19:53 Sunny 78 25.6 55 12.8 45 45 E 8 13 30.07 1018 10 16.0934 0 0
8:53 pm 20:53 Sunny 75 23.9 55 12.8 50 50 E 5 7 30.07 1018 10 16.0934 0 0
9:53 pm 21:53 Clear 69 20.6 58 14.4 68 68 Calm 30.08 1019 10 16.0934 0 0
10:53 pm 22:53 Clear 65 18.3 58 14.4 78 78 Calm 30.09 1019 10 16.0934 0 0
11:53 pm 23:53 Mostly Clear 64 17.8 57 13.9 78 78 NE 3 6 30.09 1019 10 16.0934 0 0

Powered by AerisWeather